#timestamp,LO_Frequency,Hit,StdDev 
1569578415.1,286046999.9,N
1569578435.9,286046996.7,N
1569578455.7,286046995.5,N
1569578475.5,286046993.5,Y
1569578495.4,286046986.3,P
1569578515.2,286046997.8,N
1569578535.1,286046997.2,N
1569578536.0,286046997.2,N
1569578555.8,286046998.8,N
1569578575.6,286047001.1,N
1569578595.5,286046999.5,N
1569578615.3,286046995.1,N
1569578635.1,286046995.5,N
1569578655.9,286046997.5,N
1569578675.7,286046996.9,N
1569578695.6,286046999.5,N
1569578715.4,286046998.2,N
1569578735.2,286046998.3,N
1569578755.1,286046998.6,N
1569578756.0,286046998.6,N
1569578775.8,286046998.5,N
1569578795.6,286046998.0,N
1569578815.5,286046997.9,N
1569578835.3,286046997.3,N
1569578855.2,286046999.3,N
1569578875.9,286046995.0,N
1569578895.7,286046997.9,N
1569578915.6,286046997.6,N
1569578935.4,286046999.6,N
1569578955.2,286046995.5,N
1569578975.1,286046994.0,N
1569578976.0,286046994.0,N
1569578995.8,286046996.4,N
1569579015.7,286046995.3,N
1569579035.5,286046995.0,N
1569579055.3,286046995.1,N
1569579075.2,286046997.4,N
1569579095.9,286046999.0,N
1569579115.7,286047000.7,N
1569579135.6,286046998.8,N
1569579155.4,286046999.6,N
1569579175.2,286046997.4,N
1569579195.1,286046997.4,N
1569579196.0,286046997.4,N
1569579215.8,286046996.4,N
1569579235.7,286046993.9,Y
1569579255.5,286046997.7,P
1569579275.3,286046997.0,P
1569579295.2,286046997.2,P
1569579315.0,286046997.7,Y
1569579315.9,286046997.7,P
1569579335.8,286046999.8,N
1569579355.6,286047002.8,N
1569579375.4,286046998.1,N
1569579395.3,286047002.8,N
1569579415.1,286047002.7,N
1569579435.8,286046999.8,N
1569579455.7,286047002.5,N
1569579475.5,286047002.4,N
1569579495.4,286047000.9,N
1569579515.2,286046998.6,N
1569579535.0,286047000.3,N
1569579535.9,286047000.3,N
1569579555.8,286047000.8,N
1569579575.6,286046999.8,N
1569579595.4,286047002.8,N
1569579615.3,286046998.5,N
1569579635.1,286046998.1,N
1569579655.9,286046998.2,N
1569579675.7,286047002.8,N
1569579695.5,286047001.2,N
1569579715.4,286047000.4,N
1569579735.2,286047001.8,N
1569579755.1,286047004.6,N
1569579756.0,286047004.6,N
1569579775.8,286047002.1,N
1569579795.6,286047000.4,N
1569579815.5,286046998.7,N
1569579835.3,286046995.0,N
1569579855.1,286046999.1,N
1569579875.9,286046999.5,N
1569579895.7,286046999.3,N
1569579915.6,286046997.0,N
1569579935.4,286046998.4,N
1569579955.2,286046996.6,N
1569579975.1,286046996.5,N
1569579976.0,286046996.5,N
1569579995.8,286046999.1,N
1569580015.6,286046998.4,N
1569580035.5,286046997.2,N
1569580055.3,286046996.9,N
1569580075.2,286046998.7,N
1569580095.9,286047000.6,N
1569580115.7,286046995.0,N
1569580135.6,286046997.9,N
1569580155.4,286046995.6,N
1569580175.2,286046998.9,N
1569580195.1,286046999.4,N
1569580196.0,286046999.4,N
1569580215.8,286046996.6,N
1569580235.7,286046994.9,N
1569580255.5,286046997.7,N
1569580275.3,286046996.7,N
1569580295.2,286046993.7,N
1569580315.0,286046993.0,Y
1569580315.9,286046993.0,P
1569580335.8,286046996.8,N
1569580355.6,286047002.6,N
1569580375.4,286047002.7,N
1569580395.3,286047002.7,N
1569580415.1,286047002.4,N
1569580435.8,286047001.7,N
1569580455.7,286047001.8,N
1569580475.5,286047001.2,N
1569580495.3,286046998.6,N
1569580515.2,286046997.9,N
1569580535.0,286046995.6,N
1569580535.9,286046995.6,N
1569580555.8,286046996.1,N
1569580575.6,286046995.6,N
1569580595.4,286046996.8,N
1569580615.3,286046996.8,N
1569580635.1,286046999.5,N
1569580655.9,286046999.1,N
1569580675.7,286046997.0,N
1569580695.5,286046997.4,N
1569580715.4,286046999.3,N
1569580735.2,286046997.8,N
1569580755.0,286046999.4,N
1569580755.9,286046999.4,N
1569580775.8,286046998.6,N
1569580795.6,286046998.7,N
1569580815.5,286046999.4,N
1569580835.3,286046997.5,N
1569580855.1,286046999.1,N
1569580875.9,286046998.3,N
1569580895.7,286047000.8,N
1569580915.5,286046997.6,N
1569580935.4,286046995.1,N
1569580955.2,286046995.0,N
1569580975.1,286046995.8,N
1569580976.0,286046995.8,N
1569580995.8,286046995.0,N
1569581015.6,286046998.0,N
1569581035.5,286046995.0,Y
1569581055.3,286046997.9,P
1569581075.1,286046997.7,P
1569581095.9,286046999.4,P
1569581115.7,286046998.9,N
1569581135.6,286046998.7,N
1569581155.4,286046998.4,N
1569581175.2,286047000.1,N
1569581195.1,286046998.5,N
1569581196.0,286046998.5,N
1569581215.8,286046999.3,N
1569581235.6,286046998.9,N
1569581255.5,286046998.2,N
1569581275.3,286046999.1,N
1569581295.2,286046998.3,N
1569581315.9,286046998.3,N
1569581335.7,286047002.2,Y
1569581355.6,286047005.6,P
1569581375.4,286047002.6,N
1569581395.3,286047002.5,N
1569581415.1,286047001.0,N
1569581416.0,286047001.0,N
1569581435.8,286047000.9,N
1569581455.7,286047000.4,N
1569581475.5,286047000.2,N
1569581495.3,286046999.3,N
1569581515.2,286046998.1,N
1569581535.0,286047000.5,N
1569581535.9,286047000.5,N
1569581555.8,286047000.5,N
1569581605.6,286046999.7,E
1569581615.6,286047000.2,N
1569581635.4,286047003.7,P
1569581655.2,286047000.4,N
1569581675.1,286047004.4,N
1569581676.0,286047004.4,N
1569581695.8,286047003.6,N
1569581715.6,286047000.2,N
1569581735.5,286046997.9,N
1569581755.3,286046994.5,N
1569581775.1,286046993.5,N
1569581795.9,286046991.9,N
1569581815.7,286046994.2,N
1569581835.6,286046995.3,N
1569581855.4,286046995.5,N
1569581875.2,286046999.6,N
1569581895.1,286046999.5,N
1569581896.0,286046999.5,N
1569581915.8,286046999.8,N
1569581935.7,286046999.3,N
1569581955.5,286046997.0,N
1569581975.3,286046996.8,N
1569581995.2,286047000.7,N
